Theta_e
302 302 302 303 303 302 301 299 298 304 303 305 302 303 304 305 305 304 304 305 306 306 307 309 309 311 310 307 308 310 312 309 312 313 311 312 313 313 314 316 318 318 321 322
302 302 302 303 303 302 301 300 299 301 303 303 303 303 303 304 304 304 304 304 303 303 305 307 308 308 307 307 309 311 311 312 312 314 314 312 312 313 313 312 314 318 320 321
302 302 302 302 303 302 301 300 299 297 300 302 303 303 302 304 304 304 303 303 302 304 306 306 309 308 307 309 309 313 308 310 315 314 313 313 313 313 313 312 313 316 320 320
302 302 302 302 302 302 301 296 298 301 302 297 301 302 301 303 305 305 304 304 305 306 308 308 311 310 311 308 310 309 307 310 314 315 317 315 315 314 313 313 314 315 316 318
300 301 301 302 302 301 300 299 302 300 302 302 302 300 301 304 304 304 305 305 305 304 305 306 308 308 310 310 309 309 306 310 311 315 317 318 315 313 313 313 313 314 317 316
300 301 301 301 302 302 301 301 301 302 302 301 302 302 302 303 303 303 304 303 303 303 304 305 305 306 308 308 309 310 308 308 309 312 312 314 313 314 314 314 314 314 317 317
300 300 300 301 301 302 302 301 301 303 303 304 303 303 303 303 303 305 303 302 302 302 301 303 304 305 308 310 310 310 310 310 310 310 316 317 317 321 316 317 323 322 316 319
300 300 300 301 301 302 303 301 302 303 302 303 304 304 304 302 303 303 302 302 302 300 303 306 306 310 310 311 311 313 312 316 313 314 318 317 326 319 319 323 324 316 320 324
301 300 301 301 301 302 303 301 302 302 303 302 303 304 304 305 305 305 302 300 300 303 303 307 304 311 312 312 313 310 311 311 311 314 319 321 319 315 316 320 325 313 314 314
300 301 301 302 302 302 303 303 302 303 303 301 301 304 304 304 306 306 302 301 303 302 303 299 302 310 310 311 312 312 313 315 310 312 313 323 316 314 315 323 318 313 312 312
300 301 302 302 302 302 303 302 302 302 303 301 302 302 303 305 305 307 304 304 304 304 304 309 311 315 313 312 312 313 315 315 321 318 321 327 315 313 316 314 311 312 312 312
299 301 302 302 303 303 303 303 301 302 302 302 302 302 303 303 303 304 304 303 306 305 308 308 310 311 310 313 315 312 316 314 315 317 318 313 313 314 313 312 311 311 311 312
298 301 302 303 303 303 303 303 302 301 303 301 298 300 303 303 303 303 306 301 303 305 305 308 310 310 310 310 312 312 311 311 314 314 312 312 312 312 311 310 309 311 310 311
297 301 303 303 304 303 302 302 301 301 302 304 300 301 302 302 303 304 303 303 303 302 304 308 309 312 309 310 311 311 309 310 311 312 312 311 312 310 311 311 309 310 310 312
296 300 303 305 305 303 303 302 301 301 302 305 302 301 304 304 304 304 304 303 304 305 307 306 306 307 310 311 309 310 309 310 312 314 311 310 310 310 310 310 311 310 310 312
294 300 304 305 305 303 302 299 304 304 302 305 304 300 304 304 306 306 307 304 305 306 308 306 304 304 308 310 310 310 308 310 309 311 310 311 310 310 310 310 309 309 310 312
294 301 305 306 306 304 301 301 304 305 304 304 305 302 305 304 306 307 305 304 303 305 308 306 303 303 305 305 308 308 306 306 307 309 310 311 310 310 309 308 309 310 310 312
294 303 306 307 306 305 305 307 308 304 304 302 307 305 304 305 308 309 302 304 302 304 306 303 303 302 302 304 308 307 306 305 307 308 309 310 311 310 308 308 310 310 310 312
298 304 307 306 305 303 306 306 306 303 302 301 306 308 309 303 309 307 307 300 305 302 305 306 305 301 306 308 307 307 305 305 305 307 307 309 311 311 312 311 309 309 311 311
300 305 305 299 306 306 306 306 302 301 304 306 308 307 309 307 309 308 306 305 305 308 308 306 308 308 307 306 307 307 306 306 305 306 307 307 307 308 309 311 309 308 309 311
297 300 301 303 306 305 297 299 301 300 303 305 307 305 305 306 309 308 304 304 305 306 308 310 310 310 306 308 309 308 307 306 306 306 305 305 305 306 307 309 311 309 308 310
297 298 299 302 300 299 304 298 300 304 305 303 305 304 303 306 302 304 304 305 303 307 306 310 313 310 309 309 309 309 308 307 308 307 307 306 306 306 306 306 308 310 310 310
303 303 304 298 299 300 306 306 303 302 304 304 303 303 302 304 300 301 298 304 305 298 299 309 311 308 307 306 306 306 307 309 310 310 309 308 308 308 307 307 306 307 310 311
303 303 300 301 303 302 302 304 304 302 302 302 301 301 300 299 300 304 303 300 297 293 296 301 306 307 305 304 304 304 306 309 310 310 310 310 309 309 308 307 307 308 309 310
305 299 300 301 302 302 302 301 302 301 301 300 299 300 301 296 299 302 296 297 294 294 298 300 303 304 303 303 303 304 305 308 309 309 310 310 310 310 310 309 308 308 308 309
305 301 303 301 303 303 303 302 303 300 299 299 298 300 301 300 299 296 295 300 293 297 298 301 301 303 302 302 302 304 304 306 308 308 309 309 309 309 310 311 309 308 308 308
305 301 301 301 301 302 302 301 302 299 301 301 300 304 302 299 296 295 302 299 297 298 301 300 300 301 302 302 303 305 305 305 305 307 309 309 308 308 308 310 309 308 308 308
Wind_Speed
29 29 29 29 28 28 17 4 3 2 9 2 1 3 3 8 7 6 6 5 9 8 9 4 1 5 9 22 19 11 3 1 4 12 8 21 22 16 8 7 4 4 3 6
28 27 27 27 27 22 11 4 3 3 1 2 2 4 4 4 5 5 4 5 3 7 7 6 5 3 4 11 15 14 7 4 2 5 2 2 22 17 16 5 3 14 8 6
27 26 25 25 25 23 9 2 4 3 3 1 3 6 6 4 6 8 4 4 6 5 6 7 4 7 2 7 15 16 7 3 5 9 5 5 5 15 19 11 4 3 10 2
26 25 23 24 24 20 6 3 2 1 4 3 8 5 3 5 4 4 6 3 4 4 4 6 1 5 3 5 9 11 2 3 5 10 12 3 6 12 19 17 23 12 4 8
25 26 22 21 21 15 4 2 2 3 5 7 8 4 3 4 5 4 5 3 11 7 5 6 7 8 4 1 3 5 3 3 6 4 8 14 10 7 16 22 20 16 4 10
24 24 23 20 18 11 3 3 4 2 4 4 2 2 4 8 11 8 7 9 13 10 11 3 9 8 7 5 3 4 4 4 6 4 7 4 7 15 8 9 13 18 12 24
25 25 22 20 15 9 4 3 4 3 4 4 4 10 14 13 11 9 15 13 6 6 8 13 10 9 10 10 11 8 3 5 2 3 5 5 1 16 2 11 9 11 6 7
25 26 23 20 15 11 7 5 3 2 4 6 11 8 10 12 11 10 8 10 6 4 5 3 4 2 4 10 5 2 6 2 2 2 2 3 6 11 9 6 4 12 11 13
26 26 22 18 14 10 8 7 9 3 3 3 4 11 9 5 4 5 4 6 5 2 1 2 2 1 1 2 2 4 9 9 4 1 2 3 9 15 7 4 3 14 13 13
27 25 21 17 13 10 8 6 9 6 3 5 4 4 5 3 3 3 5 6 6 3 3 2 2 3 1 3 3 2 2 1 3 2 2 1 13 17 0 5 5 15 11 11
28 24 19 16 13 8 8 9 11 6 3 8 6 4 6 5 4 3 4 4 2 3 6 3 3 3 1 1 1 1 2 1 0 2 1 2 17 5 7 4 5 8 11 8
29 23 18 15 11 9 8 5 5 6 5 7 18 25 31 22 23 4 1 2 3 3 1 2 4 2 4 3 1 3 2 2 1 4 2 8 10 3 1 4 7 7 9 14
30 24 18 14 12 7 8 11 8 6 3 5 3 5 2 6 17 22 3 2 3 1 3 2 2 2 1 2 1 2 1 1 1 4 5 12 15 5 5 9 9 12 12 13
32 26 20 15 12 8 8 9 6 5 4 3 6 8 11 13 9 14 25 3 2 2 1 1 1 3 1 2 1 1 1 3 3 2 6 12 6 8 13 16 13 12 14 13
34 28 21 15 11 8 8 12 13 14 1 3 5 17 8 15 7 7 15 14 5 1 2 2 2 1 3 2 1 1 3 4 1 1 2 5 11 12 16 15 13 13 12 17
36 27 16 14 9 6 4 3 5 14 11 2 4 4 5 12 4 12 6 4 4 2 2 3 2 2 3 0 1 6 12 6 2 3 4 8 19 14 15 9 15 13 11 14
38 26 17 15 11 8 4 3 5 6 8 2 4 4 4 6 5 2 2 2 1 2 1 2 1 2 1 1 2 10 11 11 10 4 5 7 11 10 17 16 15 11 10 11
38 23 17 8 6 5 4 3 7 16 3 1 2 4 4 4 3 2 2 2 1 1 2 2 1 3 2 1 4 9 12 12 12 10 10 7 11 16 15 16 10 11 11 10
29 18 5 2 2 2 2 7 2 8 2 1 1 3 3 4 3 1 2 2 2 1 1 2 3 3 2 5 8 12 12 9 13 14 13 12 11 12 13 15 15 13 11 9
21 6 2 3 1 12 2 3 1 2 1 2 3 2 3 1 2 2 3 3 2 2 2 3 1 1 2 6 9 8 8 7 9 11 10 11 14 13 16 15 15 13 12 10
12 7 3 11 10 2 2 0 2 1 2 2 3 3 3 2 1 1 1 1 2 2 1 2 1 1 4 8 9 7 8 9 11 11 12 11 10 13 15 15 14 14 12 12
14 17 14 7 3 2 1 1 2 1 3 3 2 3 3 2 1 1 1 1 2 1 3 1 2 3 8 8 8 7 5 8 10 12 14 15 12 11 11 12 13 13 17 20
3 3 3 2 1 4 3 1 3 2 2 3 3 4 0 2 3 2 3 3 1 3 3 1 3 6 8 8 6 7 7 8 9 11 11 15 15 19 15 12 16 20 19 22
2 2 6 3 3 4 4 4 4 5 4 4 1 2 1 1 3 1 2 2 2 3 4 3 3 6 10 10 8 6 9 9 11 13 12 12 14 14 18 18 18 16 13 22
3 3 4 5 4 3 3 3 3 4 2 1 1 0 2 2 3 1 2 4 2 3 4 3 5 6 7 8 7 9 9 8 9 9 11 12 12 14 14 20 19 17 17 21
3 4 2 2 1 4 2 3 4 2 2 2 2 1 2 1 2 3 3 2 4 4 4 5 4 6 6 5 5 5 7 8 9 7 11 14 13 14 17 17 14 17 16 21
4 4 3 4 2 5 3 4 4 3 2 2 2 1 5 2 2 1 4 4 4 5 4 3 5 7 7 6 6 5 5 9 8 11 12 15 21 21 17 12 12 14 17 20
Wind_Direction
352 353 353 355 351 347 356 358 13 341 324 32 14 311 310 314 293 299 264 263 252 258 319 313 244 268 325 343 342 334 311 305 220 211 163 195 199 193 156 192 195 212 166 267
348 350 351 356 359 355 343 341 297 329 351 34 338 300 286 264 296 284 317 304 299 311 293 304 218 276 348 327 323 343 341 277 162 15 313 175 201 207 208 115 106 206 213 255
345 346 349 353 356 353 349 352 338 323 29 178 300 326 301 297 282 281 269 264 286 325 312 304 274 264 289 343 330 331 355 278 263 205 196 140 148 201 206 197 204 203 223 305
340 342 346 351 354 355 356 24 299 296 315 316 315 304 290 295 317 319 301 301 12 335 311 304 314 14 326 11 349 334 24 277 318 300 290 269 162 180 199 202 215 212 221 242
340 339 342 345 353 358 13 8 334 325 288 278 321 329 273 325 338 300 305 289 312 315 288 282 294 336 28 129 344 309 311 293 346 290 262 275 265 253 211 199 209 231 250 254
340 339 338 341 350 359 333 296 279 266 276 298 295 272 304 307 312 276 232 305 314 306 288 319 287 253 226 220 272 332 309 352 356 304 339 256 260 235 208 207 224 204 195 236
338 339 338 338 335 341 285 275 277 271 285 267 276 286 295 284 284 283 289 287 254 250 330 318 273 232 220 205 233 219 245 312 269 269 304 164 272 27 269 194 45 1 307 345
335 335 336 334 327 331 291 266 245 277 287 272 287 289 294 305 301 276 264 276 233 323 300 275 300 131 158 222 207 24 207 216 252 179 273 262 19 20 349 10 56 9 350 344
335 338 335 334 323 321 294 274 265 264 283 253 332 306 299 299 306 310 275 303 312 10 242 249 226 277 145 167 161 347 326 194 189 45 210 160 351 321 292 161 156 354 348 337
335 336 335 332 326 315 306 270 252 262 281 269 191 279 304 276 290 278 289 326 338 22 350 5 182 224 205 157 173 238 59 1 184 228 245 18 346 328 111 141 292 318 325 322
337 336 335 333 326 311 301 278 273 247 260 279 229 234 220 266 261 290 318 342 335 350 17 338 329 293 84 319 56 8 129 278 10 181 242 127 356 5 61 272 284 286 318 315
341 336 334 328 324 312 283 271 282 276 246 263 275 265 261 244 244 265 262 252 251 220 317 341 296 15 353 332 186 12 77 41 336 12 12 328 338 335 297 284 272 306 309 319
347 340 333 327 317 296 276 269 284 280 271 288 332 250 337 261 238 225 215 251 217 212 202 301 291 289 240 7 21 299 167 228 199 331 333 316 305 289 352 338 320 307 312 317
347 341 329 321 309 287 268 259 264 234 264 299 284 325 311 299 264 222 214 272 69 82 284 302 302 289 102 237 320 314 212 194 202 252 307 324 63 338 332 327 322 318 321 323
344 342 324 315 302 290 271 258 248 229 240 285 288 318 341 13 0 254 221 233 238 240 273 244 250 266 325 272 158 247 196 204 215 134 183 271 283 318 319 324 313 321 322 323
343 336 320 308 290 276 301 336 245 229 202 281 305 282 291 314 305 300 245 201 204 207 204 257 281 244 179 279 280 23 8 349 180 239 227 225 283 301 303 310 314 311 315 309
341 335 317 296 266 225 188 210 305 201 196 279 299 302 267 313 292 344 348 62 151 250 202 234 251 282 143 328 347 336 338 336 332 295 310 296 295 310 312 315 306 301 293 293
338 334 323 314 220 251 288 24 332 209 251 50 283 278 324 24 298 2 349 359 23 120 329 1 270 347 23 37 330 335 326 318 311 343 329 267 295 313 314 317 306 311 312 317
336 333 310 278 187 181 168 338 94 168 219 222 283 290 298 344 276 22 343 18 13 254 8 22 15 354 41 318 334 328 325 305 301 308 316 311 315 320 324 323 318 317 313 314
340 339 304 326 97 310 135 152 27 14 240 212 250 217 265 234 290 42 355 4 12 5 18 310 33 176 359 277 273 269 292 304 293 299 300 319 318 321 321 314 304 302 301 298
352 359 323 313 328 181 39 6 83 310 281 229 248 232 280 310 333 348 25 6 335 339 328 336 353 351 275 272 288 293 272 274 268 266 270 276 276 281 288 299 305 302 300 297
298 286 298 290 327 26 90 291 317 212 243 270 223 275 222 309 54 108 322 74 353 342 316 318 47 279 280 295 297 301 282 265 269 263 268 273 272 276 279 284 288 296 300 297
287 213 263 55 296 29 160 220 299 301 253 259 337 320 346 357 43 36 56 48 273 353 38 8 238 277 310 320 315 311 306 307 295 298 288 283 284 284 278 281 280 283 292 296
235 212 297 176 250 240 189 191 207 233 227 274 259 264 96 18 51 13 359 263 48 44 30 270 267 315 312 314 314 329 318 316 323 326 313 293 289 287 281 272 273 278 282 287
228 125 245 229 242 250 214 226 293 242 231 152 17 24 92 11 79 37 51 17 346 188 217 238 258 292 293 302 320 328 319 314 307 306 330 328 314 312 294 274 265 264 267 280
227 231 257 225 331 276 214 197 254 226 148 82 61 93 47 330 136 62 197 115 225 253 227 238 280 291 286 274 284 286 286 294 299 314 319 330 330 322 316 294 275 267 263 266
224 251 212 176 232 229 240 191 236 155 98 233 117 58 221 104 45 284 188 204 221 227 261 256 246 260 276 276 283 289 301 312 321 312 319 329 327 334 331 341 300 268 265 268